Regional Weather Roundup
Issued by NWS Cleveland, OH

Home | Current Version | Previous Version | Text Only | Print | Product List | Glossary Off
Versions: 1 2 3 4 5 6 7 8 9 10 11 12 13 14 15 16 17 18 19 20 21 22 23 24 25 26 27 28 29 30 31 32 33 34 35 36 37 38 39 40 41 42 43 44 45 46 47 48 49 50

000
ASUS41 KCLE 301300
RWRCLE
OHIO REGIONAL WEATHER ROUNDUP
NATIONAL WEATHER SERVICE WILMINGTON, OH
800 AM EST FRI JAN 30 2015

NOTE: "FAIR" INDICATES FEW OR NO CLOUDS BELOW 12,000 FEET WITH NO
SIGNIFICANT WEATHER AND/OR OBSTRUCTIONS TO VISIBILITY.

OHZ001>008-015>018-024>027-034-035-043-044-301400-
   NORTHWEST OHIO

CITY           SKY/WX    TMP DP  RH WIND       PRES   REMARKS
DEFIANCE       CLOUDY    22  10  60 N9        30.38R WCI  12
FINDLAY        CLOUDY    22  10  60 N16       30.33R WCI   8
TOLEDO EXPRESS PTCLDY    18   9  68 N13G21    30.36R WCI   5
TOLEDO EXEC    MOCLDY    20  10  65 NW15      30.36R WCI   6
LIMA           CLOUDY    22  11  62 N14G25    30.33R WCI   9
$$

OHZ009>014-019>023-028>033-038-089-301400-
   NORTHEAST OHIO

CITY           SKY/WX    TMP DP  RH WIND       PRES   REMARKS
CLE-HOPKINS    LGT SNOW  18  11  74 NW21G29   30.30R BLWGSNOWWCI   1
CLE-LAKEFRONT  FLURRIES  19  12  74 NW24G31   30.27R WCI   2
CUY CO. ARPT   LGT SNOW  21  18  86 NW17G26   30.25R BLWGSNOWWCI   7
LORAIN-ELYRIA  FLURRIES  18  10  71 N21G29    30.29R WCI   1
ASHTABULA      LGT SNOW  18  13  80 NW14G24   30.19R WCI   4
AKRON-CANTON   LGT SNOW  20  14  77 NW14      30.20R VSB 3/4 WCI   7
WOOSTER        LGT SNOW  19  14  79 N23G30    30.24R WCI   2
MANSFIELD      CLOUDY    19  12  74 NW21G30   30.24R HAZE    WCI   3
YOUNGSTOWN     LGT SNOW  19  15  84 NW14G22   30.16R WCI   6
$$

OHZ042-051>053-060>062-070>072-077>081-301400-
  SOUTHWEST OHIO

CITY           SKY/WX    TMP DP  RH WIND       PRES   REMARKS
CINC-COVINGTON CLOUDY    29  16  58 N20G28    30.35R WCI  16
CINC-LUNKEN    CLOUDY    29  19  66 N13       30.39R WCI  19
HAMILTON       FLURRIES  28  16  60 N12G22    30.39R WCI  18
DAYTON         NOT AVBL
WRIGHT-PAT AFB PTCLDY    22  11  64 NW17G23   30.36R WCI   7
DAYTON GENERAL PTCLDY    24  13  62 N16G28    30.34R WCI  11
WILMINGTON     MOCLDY    23  11  60 NW18      30.33R WCI   9
$$

OHZ036-037-039>041-045>050-054>059-063>069-073>076-082>088-301400-
  CENTRAL AND SOUTHEAST OHIO

CITY           SKY/WX    TMP DP  RH WIND       PRES   REMARKS
COLUMBUS       FLURRIES  22  14  71 N20G25    30.29R WCI   7
OSU AIRPORT    CLOUDY    22  10  60 N17G29    30.29R WCI   8
BOLTON FIELD   CLOUDY    21  12  68 NW16      30.31R WCI   7
RICKENBACK AFB NOT AVBL
NEWARK         CLOUDY    23  12  62 NW12G21   30.27R WCI  12
MARION         CLOUDY    21  12  68 N17G23    30.29R WCI   7
LANCASTER      CLOUDY    24  16  71 NW15      30.29R WCI  11
ZANESVILLE     CLOUDY    22  12  65 NW16G24   30.25R WCI   8
NEW PHILLY     LGT SNOW  23  15  71 NW14G25   30.23R WCI  11
$$



USA.gov is the U.S. government's official web portal to all federal, state and local government web resources and services.